This is the latest recevied weather packets stored in our database for station/object KE0LFX. If no packets are shown the sender has not sent any weather packets the latest 10 day(s).
| Time | Temp. | Humidity | Pressure | Rain* | Wind** | Luminosity | Snow |
|---|---|---|---|---|---|---|---|
| 1777384719 | 9.44° C | 79% | 1018.9 hPa | 0 mm | - | 120 W/m² | - |
| 1777384418 | 8.89° C | 79% | 1019.1 hPa | 0 mm | - | 72 W/m² | - |
| 1777384114 | 8.89° C | 79% | 1019 hPa | 0 mm | - | 69 W/m² | - |
| 1777383811 | 8.89° C | 80% | 1018.9 hPa | 0 mm | - | 163 W/m² | - |
| 1777383507 | 9.44° C | 79% | 1018.8 hPa | 0 mm | - | 130 W/m² | - |
| 1777383203 | 9.44° C | 79% | 1018.8 hPa | 0 mm | - | 130 W/m² | - |
| 1777382900 | 9.44° C | 80% | 1018.5 hPa | 0 mm | - | 121 W/m² | - |
| 1777382596 | 8.89° C | 80% | 1018.5 hPa | 0 mm | - | 88 W/m² | - |
| 1777382291 | 8.89° C | 80% | 1018.6 hPa | 0 mm | - | 103 W/m² | - |
| 1777381988 | 8.89° C | 80% | 1018.6 hPa | 0 mm | - | 106 W/m² | - |
| 1777381683 | 8.89° C | 80% | 1018.8 hPa | 0 mm | - | 104 W/m² | - |
| 1777381379 | 8.33° C | 81% | 1018.3 hPa | 0 mm | - | 88 W/m² | - |
| 1777381075 | 8.33° C | 81% | 1018.2 hPa | 0 mm | - | 86 W/m² | - |
| 1777380772 | 8.89° C | 81% | 1018.5 hPa | 0 mm | - | 68 W/m² | - |
| 1777380469 | 8.33° C | 81% | 1018.2 hPa | 0 mm | - | 90 W/m² | - |
| 1777380165 | 8.33° C | 81% | 1018.3 hPa | 0 mm | - | 72 W/m² | - |
| 1777379862 | 8.33° C | 83% | 1018.6 hPa | 0 mm | - | 65 W/m² | - |
| 1777379557 | 8.33° C | 85% | 1018.5 hPa | 0 mm | - | 52 W/m² | - |
| 1777379253 | 8.33° C | 85% | 1018.5 hPa | 0 mm | - | 32 W/m² | - |
| 1777378948 | 8.33° C | 85% | 1018.6 hPa | 0 mm | - | 23 W/m² | - |
| 1777378644 | 8.33° C | 85% | 1018.3 hPa | 0 mm | - | 19 W/m² | - |
| 1777378340 | 8.33° C | 85% | 1018.4 hPa | 0 mm | - | 15 W/m² | - |
| 1777378040 | 8.33° C | 85% | 1018 hPa | 0 mm | - | 17 W/m² | - |
| 1777377734 | 8.33° C | 85% | 1018 hPa | 0 mm | - | 15 W/m² | - |
| 1777377429 | 7.78° C | 85% | 1017.9 hPa | 0 mm | - | 16 W/m² | - |
* Rain latest hour (hover to see other rain measurements)
** Current wind speed in m/s (hover to see current wind gust speed)